FW7738 Weather Reports


Display with metric or nautical units.
time (UTC)temp
F
wind
direction
speed
MPH
gust
MPH
rain 1hr
in
rain 24hr
in
rain mn
in
humidity
%
barometer
mb
20260507113029 62 69 3.0 8.0 0.00 0.00 0.00 77 1011.1
20260507112025 63 71 7.0 14.0 0.00 0.00 0.00 82 1011.4
20260507111020 63 71 4.0 15.0 0.00 0.00 0.00 83 1011.5
20260507110015 63 77 5.0 15.0 0.00 0.00 0.00 83 1011.6
20260507105031 64 88 6.0 15.0 0.00 0.00 0.00 80 1011.6
20260507104026 65 79 5.0 14.0 0.00 0.00 0.00 76 1011.5
20260507103021 65 102 9.0 18.0 0.00 0.00 0.00 71 1011.4
20260507102016 66 90 8.0 18.0 0.00 0.00 0.00 67 1011.5
20260507101032 67 100 10.0 16.0 0.00 0.00 0.00 62 1011.4
20260507100027 67 71 4.0 11.0 0.00 0.00 0.00 61 1011.5
20260507095023 67 65 5.0 14.0 0.00 0.00 0.00 64 1011.5
20260507094018 66 75 6.0 15.0 0.00 0.00 0.00 64 1011.4
20260507093034 66 64 5.0 10.0 0.00 0.00 0.00 67 1011.5
20260507092049 66 86 5.0 11.0 0.00 0.00 0.00 66 1011.4
20260507091025 66 71 4.0 10.0 0.00 0.00 0.00 68 1011.3
20260507090019 66 54 7.0 15.0 0.00 0.00 0.00 69 1011.4
20260507085035 65 73 4.0 13.0 0.00 0.00 0.00 69 1011.4
20260507084030 65 72 3.0 13.0 0.00 0.00 0.00 71 1011.5
20260507083045 65 92 7.0 16.0 0.00 0.00 0.00 71 1011.4
20260507082021 64 61 3.0 13.0 0.00 0.00 0.00 72 1011.5
20260507081017 64 45 4.0 10.0 0.00 0.00 0.00 72 1011.6
20260507080033 63 71 4.0 13.0 0.00 0.00 0.00 72 1011.6
20260507075048 63 59 5.0 10.0 0.00 0.00 0.00 74 1011.4
20260507074024 64 72 3.0 9.0 0.00 0.00 0.00 70 1011.5
20260507073019 65 87 1.0 4.0 0.00 0.00 0.00 64 1011.4
20260507072034 63 43 1.0 2.0 0.00 0.00 0.00 62 1011.3
20260507071050 61 38 2.0 3.0 0.00 0.00 0.00 65 1011.4
20260507070026 61 63 1.0 3.0 0.00 0.00 0.00 62 1011.2
20260507065021 61 52 1.0 4.0 0.00 0.00 0.00 60 1011.1
20260507064036 60 38 0.0 3.0 0.00 0.00 0.00 60 1011.0
20260507063032 61 35 0.0 1.0 0.00 0.00 0.00 60 1011.1
20260507062027 59 22 0.0 2.0 0.00 0.00 0.00 69 1010.9
20260507061023 59 38 0.0 1.0 0.00 0.00 0.00 70 1010.9
20260507060022 58 21 0.0 1.0 0.00 0.00 0.00 72 1010.7
20260507055054 58 0.0 0.0 0.00 0.00 0.00 73 1010.7
20260507054029 57 351 0.0 1.0 0.00 0.00 0.00 73 1010.8
20260507053025 57 276 1.0 3.0 0.00 0.00 0.00 73 1010.8
20260507052020 56 220 0.0 1.0 0.00 0.00 0.00 73 1010.6
20260507051035 56 205 0.0 2.0 0.00 0.00 0.00 73 1010.6
20260507050031 56 313 0.0 1.0 0.00 0.00 0.00 73 1010.3
20260507045026 56 333 0.0 2.0 0.00 0.00 0.00 72 1010.2
20260507044021 56 333 0.0 2.0 0.00 0.00 0.00 72 1010.0
20260507043017 56 323 1.0 3.0 0.00 0.00 0.00 72 1010.0
20260507042053 56 332 1.0 3.0 0.00 0.00 0.00 72 1009.9
20260507041028 57 310 4.0 6.0 0.00 0.00 0.00 71 1010.0
20260507040024 57 314 3.0 7.0 0.00 0.00 0.00 70 1010.0
20260507035019 57 304 4.0 6.0 0.00 0.00 0.00 72 1010.0
20260507034034 57 303 4.0 8.0 0.00 0.00 0.00 73 1010.0
20260507033029 57 308 5.0 8.0 0.00 0.00 0.00 73 1010.2
20260507032025 57 306 3.0 7.0 0.00 0.00 0.00 74 1010.3
20260507031020 57 319 4.0 7.0 0.00 0.00 0.00 75 1010.4
20260507030016 57 312 5.0 9.0 0.00 0.00 0.00 73 1010.4
20260507025031 57 305 4.0 8.0 0.00 0.00 0.00 72 1010.4
20260507024026 57 302 4.0 7.0 0.00 0.00 0.00 73 1010.5
20260507023022 57 303 4.0 8.0 0.00 0.00 0.00 73 1010.5
20260507022017 57 293 4.0 7.0 0.00 0.00 0.00 73 1010.6
20260507021033 57 296 4.0 7.0 0.00 0.00 0.00 74 1010.4
20260507020028 57 299 4.0 9.0 0.00 0.00 0.00 73 1010.5
20260507015023 57 283 4.0 8.0 0.00 0.00 0.00 73 1010.5
20260507014019 58 291 3.0 6.0 0.00 0.00 0.00 73 1010.5
20260507013054 58 293 3.0 7.0 0.00 0.00 0.00 73 1010.5
20260507012029 58 282 4.0 6.0 0.00 0.00 0.00 73 1010.6
20260507011045 58 298 4.0 6.0 0.00 0.00 0.00 72 1010.6
20260507010020 59 305 4.0 6.0 0.00 0.00 0.00 70 1010.6
20260507005015 59 320 2.0 3.0 0.00 0.00 0.00 67 1010.7
20260507004111 60 325 2.0 4.0 0.00 0.00 0.00 66 1010.8
20260507003026 60 345 1.0 2.0 0.00 0.00 0.00 67 1010.8
20260507002022 60 337 2.0 4.0 0.00 0.00 0.00 67 1010.9
20260507001037 60 333 1.0 3.0 0.00 0.00 0.00 67 1011.1
20260507000032 60 304 2.0 3.0 0.00 0.00 0.00 68 1011.1
20260506235027 60 317 2.0 3.0 0.00 0.00 0.00 70 1011.2
20260506234023 60 320 2.0 3.0 0.00 0.00 0.00 72 1011.2
20260506233058 60 326 2.0 4.0 0.00 0.00 0.00 72 1011.1
20260506232114 60 348 1.0 2.0 0.00 0.00 0.00 72 1011.3
20260506231029 60 338 1.0 2.0 0.00 0.00 0.00 72 1011.4
20260506230024 61 328 1.0 2.0 0.00 0.00 0.00 72 1011.4
20260506225020 60 346 1.0 2.0 0.00 0.00 0.00 72 1011.3
20260506224015 60 343 1.0 3.0 0.00 0.00 0.00 73 1011.5
20260506223111 61 339 1.0 2.0 0.00 0.00 0.00 73 1011.6
20260506222026 61 339 1.0 2.0 0.00 0.00 0.00 73 1011.4
20260506221042 61 358 1.0 1.0 0.00 0.00 0.00 72 1011.4
20260506220017 61 330 1.0 2.0 0.00 0.00 0.00 72 1011.4
20260506215032 61 353 1.0 2.0 0.00 0.00 0.00 71 1011.5
20260506214028 61 323 1.0 2.0 0.00 0.00 0.00 71 1011.5
20260506213044 62 351 0.0 2.0 0.00 0.00 0.00 70 1011.5
20260506212018 62 356 1.0 2.0 0.00 0.00 0.00 69 1011.3
20260506211054 62 12 1.0 1.0 0.00 0.00 0.00 69 1011.2
20260506210029 62 61 0.0 1.0 0.00 0.00 0.00 69 1011.2
20260506205025 62 51 0.0 2.0 0.00 0.00 0.00 69 1011.0
20260506204020 62 56 0.0 2.0 0.00 0.00 0.00 69 1010.9
20260506203015 63 68 0.0 2.0 0.00 0.00 0.00 69 1010.8
20260506202051 62 53 1.0 2.0 0.00 0.00 0.00 69 1010.7
20260506201026 62 67 1.0 3.0 0.00 0.00 0.00 69 1010.7
20260506200041 62 72 1.0 3.0 0.00 0.00 0.00 69 1010.6
20260506195017 62 71 0.0 1.0 0.00 0.00 0.00 69 1010.4
20260506194032 62 71 0.0 2.0 0.00 0.00 0.00 70 1010.3
20260506193028 62 64 1.0 3.0 0.00 0.00 0.00 70 1010.2
20260506192023 62 70 0.0 3.0 0.00 0.00 0.00 70 1010.1
20260506191039 63 83 2.0 6.0 0.00 0.00 0.00 70 1010.0
20260506190035 63 74 2.0 4.0 0.00 0.00 0.00 69 1010.0
20260506185030 63 97 5.0 8.0 0.00 0.00 0.00 69 1010.0
20260506184025 63 91 3.0 7.0 0.00 0.00 0.00 67 1009.8
20260506183020 64 92 2.0 6.0 0.00 0.00 0.00 66 1009.8
20260506182036 64 118 5.0 8.0 0.00 0.00 0.00 66 1009.7
20260506181031 64 102 4.0 9.0 0.00 0.00 0.00 66 1009.6
20260506180027 64 115 5.0 10.0 0.00 0.00 0.00 66 1009.5
20260506175022 64 96 5.0 9.0 0.00 0.00 0.00 65 1009.5
20260506174017 64 116 5.0 9.0 0.00 0.00 0.00 64 1009.4
20260506173032 64 103 7.0 11.0 0.00 0.00 0.00 66 1009.5
20260506172027 64 91 6.0 14.0 0.00 0.00 0.00 66 1009.5
20260506171023 64 95 6.0 13.0 0.00 0.00 0.00 65 1009.7
20260506170018 64 96 7.0 14.0 0.00 0.00 0.00 65 1009.8
20260506165034 65 99 8.0 16.0 0.00 0.00 0.00 64 1009.8
20260506164029 65 99 7.0 13.0 0.00 0.00 0.00 62 1009.8
20260506163044 65 94 8.0 15.0 0.00 0.00 0.00 64 1009.7
20260506162020 65 104 8.0 16.0 0.00 0.00 0.00 64 1009.7
20260506161015 66 123 9.0 16.0 0.00 0.00 0.00 62 1009.6
20260506160031 65 95 7.0 15.0 0.00 0.00 0.00 61 1009.7
20260506155026 65 93 8.0 15.0 0.00 0.00 0.00 63 1009.7
20260506154021 65 95 8.0 15.0 0.00 0.00 0.00 64 1009.7
20260506153017 65 99 8.0 15.0 0.00 0.00 0.00 62 1009.5
20260506152032 64 101 9.0 16.0 0.00 0.00 0.00 65 1009.3
20260506151027 64 109 10.0 17.0 0.00 0.00 0.00 64 1009.5
20260506150023 64 96 8.0 15.0 0.00 0.00 0.00 64 1009.7
20260506145018 65 91 6.0 14.0 0.00 0.00 0.00 63 1010.0
20260506144033 65 115 7.0 14.0 0.00 0.00 0.00 64 1009.9
20260506143028 65 110 6.0 11.0 0.00 0.00 0.00 64 1009.9
20260506142025 64 128 9.0 14.0 0.00 0.00 0.00 64 1010.0
20260506141020 65 105 9.0 16.0 0.00 0.00 0.00 65 1010.2
20260506140035 65 118 10.0 17.0 0.00 0.00 0.00 65 1010.2
20260506135030 65 125 10.0 17.0 0.00 0.00 0.00 64 1010.1
20260506134025 66 106 7.0 15.0 0.00 0.00 0.00 64 1010.0
20260506133041 65 131 13.0 19.0 0.00 0.00 0.00 66 1010.0
20260506132016 66 119 12.0 17.0 0.00 0.00 0.00 63 1010.0
20260506131032 65 100 10.0 18.0 0.00 0.00 0.00 60 1010.0
20260506130047 66 124 11.0 17.0 0.00 0.00 0.00 61 1010.3
20260506125022 68 124 9.0 15.0 0.00 0.00 0.00 56 1010.2
20260506124017 67 130 10.0 17.0 0.00 0.00 0.00 57 1010.2
20260506123033 66 111 12.0 18.0 0.00 0.00 0.00 59 1010.2
20260506122028 67 120 8.0 15.0 0.00 0.00 0.00 60 1010.2
20260506121024 67 114 11.0 16.0 0.00 0.00 0.00 61 1010.2
20260506120018 67 119 12.0 22.0 0.00 0.00 0.00 59 1010.3
20260506115034 67 123 12.0 19.0 0.00 0.00 0.00 60 1010.3